STARLINK S (44251 NORAD) Tracking and Keplerian Element Data

This shows tracking and keplerian element data for the satellite.

Feedback or suggestion? Click here.




ElementValue
Catalog44251
NameSTARLINK S
Epoch Orbit357
Epoch Day167.235416
Epoch Year2019
RAAN67.9559
Inclination53.0013
Eccentricity0.000515
Argument of Perigee79.4368
Mean Anonmoly140.2197
Mean Motion15.07182558
Decay Rate-0.00808551
L11 44251U 19029S 19167.23541600 -.00808551 00000-0 -56888-1 0 9997
L22 44251 53.0013 67.9559 0005150 79.4368 140.2197 15.07182558 3570

Live tracking and technical data element details for STARLINK S (NORAD 44251). STARLINK S can be tracked NOW for your location showing map with azimuth and elevation plus other details from your city location.

Track the satellite on the map from your city or location and see movement details for azimuth, elevation, latitude, longitude, range, height, and movement on the map or in text.







IsCatalogInMostPopularTable: catalog: 44251, numindb: 36
Update: records affected: 1



GetName: 44251 STARLINK S

Hit Count: updated at: Fri, 19 Jul 2019 08:26:03 GMT